Regional Weather Roundup
Issued by NWS

Home | Current Version | Previous Version | Graphics & Text | Print | Product List | Glossary On
Versions: 1 2 3 4 5 6 7 8 9 10 11 12 13 14 15 16 17 18 19 20 21 22 23 24 25 26 27 28
000
ASUS45 KBOU 181910
RWRCO

WEATHER ROUNDUP FOR COLORADO
NATIONAL WEATHER SERVICE DENVER/BOULDER CO
1200 PM MST THU JAN 18 2018

NOTE: "FAIR" INDICATES FEW OR NO CLOUDS BELOW 12000 FEET WITH NO
SIGNIFICANT WEATHER AND/OR OBSTRUCTIONS TO VISIBILITY.

COZ001>005-013-030-031-182000-
...NORTHWEST COLORADO...

CITY           SKY/WX    TMP DP  RH WIND       PRES   REMARKS
CRAIG          FAIR      34  16  47 MISG      30.28F
HAYDEN         FAIR     N/A N/A N/A E12       30.29F
MEEKER         FAIR      37  21  52 CALM      30.28F
RABBIT EARS PA FAIR      28  21  74 W7        30.31F WCI  21
STEAMBOAT SPGS FAIR      20  12  70 CALM      30.31F
WALDEN         FAIR      32  14  47 S13       30.27F WCI  22
$$

COZ006>008-011-182000-
...WEST CENTRAL VALLEYS...

CITY           SKY/WX    TMP DP  RH WIND       PRES   REMARKS
GRAND JUNCTION FAIR      41  18  39 SE6       30.31F
MONTROSE       FAIR      39  14  36 NW7       30.33F
EAGLE          FAIR      27  13  55 VRB5      30.38F WCI  22
RIFLE          FAIR      36  17  46 CALM      30.33F
DELTA          FAIR      39  17  41 CALM      30.33F
NUCLA          FAIR      37  16  41 CALM      30.35F
$$

COZ017>023-064>068-182000-
...SOUTHWEST COLORADO...

CITY           SKY/WX    TMP DP  RH WIND       PRES   REMARKS
DURANGO        FAIR      40  20  44 VRB3      30.28F
CORTEZ         FAIR      42  19  39 VRB3      30.30F
PAGOSA SPRINGS FAIR      40  10  28 CALM      30.28F
TELLURIDE      FAIR      42   1  18 CALM      30.32F
WOLF CREEK PAS FAIR      32   3  29 NW5       30.42F WCI  27
$$

COZ009-010-012-014-032>034-037-058>063-182000-
...CENTRAL COLORADO...

CITY           SKY/WX    TMP DP  RH WIND       PRES   REMARKS
ASPEN          FAIR      38  12  34 N7        30.27F
BUENA VISTA    FAIR      46   2  16 S6        30.22F
COPPER MTN     NOT AVBL
BERTHOUD PASS  FAIR      23  12  63 NW20      30.33F WCI   8
COTTONWOOD PAS   N/A     46   1  15 CALM      30.27F
GUNNISON       FAIR      21   8  57 CALM      30.37F
KREMMLING      FAIR      23  10  58 W3        30.37F
LEADVILLE      FAIR      40  -4  15 NE8       30.27F
MONARCH PASS   FAIR      30   3  31 SW14      30.45F WCI  20
SALIDA         FAIR      46   7  20 NW5       30.30F
SUNLIGHT       FAIR      32   9  37 SW8       30.38F WCI  25
WILKERSON PASS FAIR      36   1  23 W7        30.32F
$$

COZ069>075-182000-
...SAN LUIS VALLEY/SANGRE DE CRISTO MOUNTAINS...

CITY           SKY/WX    TMP DP  RH WIND       PRES   REMARKS
ALAMOSA        FAIR      37   4  25 VRB3      30.28F
DEL NORTE      FAIR      38   5  26 E5        30.29F
LA VETA PASS   FAIR      34   7  32 SW18G25     N/A  WCI  23
SAGUACHE       FAIR      37   9  30 SE7       30.29F
$$

COZ035-036-038>040-182000-
...NORTHERN COLORADO FRONT RANGE...

CITY           SKY/WX    TMP DP  RH WIND       PRES   REMARKS
DENVER INTL AP PTSUNNY   60   5  11 S9        30.04F
DMNS CITY PARK NOT AVBL
AURORA         PTSUNNY   60   5  11 S7        30.04F
FRONT RANGE AP PTSUNNY   63   7  11 SW8       30.05F
ERIE MUNI ARPT FAIR      51  15  23 CALM      30.08F
BOULDER MUN AP FAIR      48  16  27 CALM      30.03F
CENTENNIAL     PTSUNNY   59   0   9 SW7       30.05F
BROOMFIELD     PTSUNNY   57   9  14 SE3       30.05F
FORT COLLINS   FAIR      44  19  36 CALM      30.03F
LONGMONT       FAIR      48  17  29 CALM      30.04F
$$

COZ041-046-047-076>085-087-088-182000-
...PIKES PEAK/PALMER DIVIDE AND SOUTHERN FOOTHILLS...

CITY           SKY/WX    TMP DP  RH WIND       PRES   REMARKS
COLO. SPRINGS  PTSUNNY   55   8  15 S8        30.12F
A. F. ACADEMY  FAIR      55   3  12 S10       30.10F
SCHRIEVER AFB  FAIR      55   4  13 SW6       30.11F
CHEYENNE MTN   FAIR      53   9  17 SE10      30.07F
ELLICOTT         N/A    N/A N/A N/A W3        30.10F
FALCON         FAIR      55   2  12 SW7       30.14F
FORT CARSON    FAIR      56   9  15 SE9       30.09F
LIMON          FAIR      59  11  15 SW10      30.06F
MONUMENT HILL  FAIR      54   0  11 SW6       30.12F
CANON CITY     FAIR      59  10  14 W16G26    30.09F
WALSENBURG     FAIR      61   9  12 W15       30.11F
TRINIDAD       FAIR      56   8  14 S9        30.12F
$$

COZ042>045-048>051-090-091-182000-
...NORTHEAST COLORADO...

CITY           SKY/WX    TMP DP  RH WIND       PRES   REMARKS
GREELEY ARPT   FAIR      45  19  35 SW5       30.04F
AKRON          FAIR      52  20  28 W16       30.03F
BURLINGTON     FAIR      59   8  13 SW12      30.04F
WRAY           FAIR      61  19  20 W10       30.01F
YUMA           FAIR      57  21  24 W10       30.02F
STERLING       FAIR      46  23  39 S8        30.00F
HOLYOKE        FAIR      59  23  25 W9        30.01F
FORT MORGAN    FAIR      47  14  27 W9        30.03F
$$

COZ086-089-092>099-182000-
...SOUTHEAST COLORADO...

CITY           SKY/WX    TMP DP  RH WIND       PRES   REMARKS
PUEBLO         FAIR      54  13  19 CALM      30.08F
LA JUNTA       FAIR      52  15  23 W10       30.09F
LAMAR          FAIR      53   8  16 SW13      30.06F
SPRINGFIELD      N/A     59  -3   8 SW8       30.09F
$$




USA.gov is the U.S. government's official web portal to all federal, state and local government web resources and services.